Regional Weather Roundup
Issued by NWS Sterling, VA

Home | Current Version | Previous Version | Graphics & Text | Print | Product List | Glossary On
Versions: 1 2 3 4 5 6 7 8 9 10 11 12 13 14 15 16 17 18 19 20 21 22 23 24 25 26 27 28 29 30 31 32 33 34 35 36 37 38 39 40 41 42 43 44 45 46 47 48 49 50
000
ASUS41 KLWX 190110
RWRLWX

REGIONAL WEATHER ROUNDUP
NATIONAL WEATHER SERVICE BALTIMORE MD/WASHINGTON DC
900 PM EDT THU SEP 18 2014

Note: "FAIR" indicates few or no clouds below 12,000 feet
with no significant weather and/or obstructions to visibility.
 TC=TEMPERATURE CELSIUS

 * =Non NWS site. Station does not report precipitation (e.g. rain,
    snow, etc.), thunder, or fog.

DCZ001-MDZ009-015-VAZ040>042-051-053>054-190200-
WASHINGTON METRO

CITY           SKY/WX    TMP DP  RH WIND       PRES   REMARKS
WASHINGTON NAT PTCLDY    71  60  68 E3        30.07R
DULLES         MOCLDY    65  57  75 E6        30.06R
ANDREWS AFB    CLEAR     62  61  97 NW2       30.07R
QUANTICO       CLEAR     66  62  87 N9        30.07R
COLLEGE PARK*  CLEAR     63  63 100 CALM      30.07R
LEESBURG*      CLEAR     64  55  72 NE3       30.07R
MANASSAS*      PTCLDY    63  57  82 CALM      30.06R
GAITHERSBURG*  CLEAR     61  57  88 CALM      30.11R

$$

MDZ006>007-011-014-190200-
BALTIMORE METRO

CITY           SKY/WX    TMP DP  RH WIND       PRES   REMARKS
BWI AIRPORT    PTCLDY    62  59  90 CALM      30.06R
MD SCIENCE CTR   N/A     68  60  75 MISG      30.07R
MARTIN STATE   PTCLDY    63  61  94 CALM      30.08
ANNAPOLIS      PTCLDY    67  63  87 CALM      30.06R
FORT MEADE*    CLEAR     57  55  94 CALM      30.09R

$$

MDZ012-015-019>023-190200-
MARYLAND EASTERN SHORE

CITY           SKY/WX    TMP DP  RH WIND       PRES   REMARKS
OCEAN CITY     CLOUDY    61  56  83 CALM      30.07R
SALISBURY      CLOUDY    65  56  72 CALM      30.07R
BAY BRIDGE AP*   N/A     66  59  77 SE5       30.07R
CAMBRIDGE*     CLOUDY    66  59  77 N5        30.07R
EASTON*        MOCLDY    66  61  82 CALM      30.10R

$$

MDZ017>025-190200-
SOUTHERN MARYLAND

CITY           SKY/WX    TMP DP  RH WIND       PRES   REMARKS
PATUXENT RIVER MOCLDY    63  55  75 CALM      30.05R
ST INIGOES     CLOUDY    69  53  56 S5        30.05R
LEONARDTOWN*   CLOUDY    61  54  77 CALM      30.07R

$$

MDZ003>005-190200-
NORTH CENTRAL MARYLAND

CITY           SKY/WX    TMP DP  RH WIND       PRES   REMARKS
FREDERICK*     CLEAR     61  57  88 CALM      30.10R
HAGERSTOWN APT CLEAR     63  45  51 NE8       30.08R
WESTMINSTER*   CLEAR     63  50  63 CALM      30.09R

$$

MDZ501>502-190200-
WESTERN MARYLAND

CITY           SKY/WX    TMP DP  RH WIND       PRES   REMARKS
OAKLAND*       CLEAR     52  43  71 N3        30.15R
CUMBERLAND*    PTCLDY    63  43  48 N3        30.14R

$$

VAZ025>031-190200-
SHENANDOAH VALLEY

CITY           SKY/WX    TMP DP  RH WIND       PRES   REMARKS
WINCHESTER*    CLOUDY    63  50  63 CALM      30.08R
STAUNTON*      CLOUDY    63  56  79 CALM      30.09R

$$

WVZ021-048>050-054>055-190200-
EASTERN WEST VIRGINIA PANHANDLE

CITY           SKY/WX    TMP DP  RH WIND       PRES   REMARKS
MARTINSBURG    PTCLDY    65  47  52 N6        30.08R
PETERSBURG*    CLEAR     61  52  73 NW3       30.11R

$$

VAZ036>039-050-190200-
CENTRAL FOOTHILLS

CITY           SKY/WX    TMP DP  RH WIND       PRES   REMARKS
CHARLOTTESVILL CLOUDY    65  62  90 N3        30.06R
ORANGE*        CLOUDY    63  59  88 CALM      30.08R

$$

VAZ055>057-190200-
NORTH AND CENTRAL PIEDMONT

CITY           SKY/WX    TMP DP  RH WIND       PRES   REMARKS
FREDERICKSBRG* MOCLDY    66  65  96 CALM      30.05R
STAFFORD*      PTCLDY    62  62 100 NW3       30.10R FOG

$$

NCZ024-NYZ072-PAZ021-071-VAZ022-071-190200-
OTHER REGIONAL OBSERVATIONS

CITY           SKY/WX    TMP DP  RH WIND       PRES   REMARKS
NEW YORK CITY  PTCLDY    67  44  43 NE3       30.07R
PHILADELPHIA   PTCLDY    67  55  65 SW8       30.06R
PITTSBURGH     MOCLDY    62  49  62 N13       30.13R
ROANOKE        CLOUDY    70  61  73 E3        30.07R
RICHMOND       MOCLDY    67  60  78 E3        30.05R
RALEIGH        CLOUDY    72  61  68 E5        30.02R

$$

ANZ530>537-190200-
MARINE OBSERVATIONS

STATION/POSITION TIME  TEMP    WIND        PRES
                       AIR SEA DIR/SP/G
                 (UTC) (F)     (DEG/KT/KT) (MB)
THOMAS PT LIGHT  0100   69 74  130/ 10/ 11 1019.1R
BALT KEY BRIDGE  0100   69     240/  2/  3 1017.8R
COVE POINT       0100   69     220/  6/  7 1017.4R
LEWISETTA        0100   69 74  210/  6/  7 1017.0S
SOLOMONS ISLAND  0100      76                N/A
PINEY POINT      0100          220/  8/  9   N/A

$$



USA.gov is the U.S. government's official web portal to all federal, state and local government web resources and services.